{"data":{"norad_id":64383,"intl_designator":"2025-127P","name":"STARLINK-34299","alt_names":[],"object_type":"PAYLOAD","status":"ACTIVE","operator":null,"country":"US","launch_date":"2025-06-13","launch_site_code":"AFETR","launch_vehicle":null,"mission":null,"orbit_class":"UNKNOWN","rcs_meters":null,"size_class":null,"mass_kg":null,"dimensions":null,"purposes":["comms"],"wikipedia_slug":null,"has_3d_model":false,"image_url":null,"decayed_at":null,"tle_current":{"epoch":"2026-05-25T04:00:03.998880Z","epoch_age_seconds":57481,"freshness":"FRESH","line1":"1 64383U 25127P   26145.16671295  .00002452  00000+0  98640-4 0  9999","line2":"2 64383  42.9998 108.2700 0001006 268.6560 277.2035 15.27569833  5858","mean_motion":15.27569833,"eccentricity":0.0001006,"inclination_deg":42.9998,"raan_deg":108.27,"arg_perigee_deg":268.656,"mean_anomaly_deg":277.2035,"bstar":9.864e-5,"rev_number":585,"period_min":94.267376121979,"perigee_km":482.38930148015,"apogee_km":483.76977824797,"semimajor_km":6861.2165398641,"source":"CELESTRAK","updated_at":"2026-05-25T13:38:20.412884Z"}}}